Find Kosmos-417

NORAD ID: 5216 Int'l Des: 1971-041 Owner: OKB10 Country: SU operational
LEOCIRCULAR

Aktuelle Ansicht

3D-Globus wird geladen...

Über Kosmos-417

Beschreibung wird geladen...

Nächste Überflüge

Passes for default location (London). Set your location on the main map for personalized predictions.

Höhenverlauf

Loading altitude history...

Zweizeiliger Elementsatz

1 5216U 71041G 26151.39009655 -.00000027 00000-0 -56763-4 0 9991
2 5216 74.0130 126.2520 0096193 223.5251 304.5005 12.61455200535654
Epoch: 31. Mai 2026 • Age: 10 hours

Aktueller Status

Höhe 1456.1 km
Geschwindigkeit 7.12 km/s
Subsatellitenpunkt -20.89°S, 66.51°W
Typ other

Most Searched